SAS36P ESSA-ENGM

Flight info

Callsign SAS36P
Flight time N/A
Altitude 34000
Route ARS6C ARS N623 IBGAX DCT EBURI N623 ESEBA ESEBA4L
Aircraft A320/M-SDE3FGHIRWY/LB1

Departure

Time 2026-05-05 14:55
Airport Stockholm-Arlanda Airport (ESSA)

Arrival

Time N/A
Airport Oslo-Gardermoen International Airport (ENGM)
Time Latitude Longitude Altitude Speed Heading
2026-05-05 14:35 59.65435 17.93515 138 ft 0 kts 74°
2026-05-05 14:44 59.65434 17.93510 137 ft 2 kts 74°
2026-05-05 14:44 59.65429 17.93477 137 ft 2 kts 74°
2026-05-05 14:44 59.65425 17.93444 137 ft 2 kts 74°
2026-05-05 14:44 59.65420 17.93411 137 ft 2 kts 74°
2026-05-05 14:45 59.65416 17.93378 137 ft 2 kts 50°
2026-05-05 14:45 59.65404 17.93362 137 ft 0 kts 345°
2026-05-05 14:47 59.65421 17.93355 137 ft 4 kts 349°
2026-05-05 14:47 59.65458 17.93344 137 ft 7 kts 357°
2026-05-05 14:48 59.65508 17.93316 137 ft 9 kts 319°
2026-05-05 14:48 59.65515 17.93192 138 ft 10 kts 258°
2026-05-05 14:48 59.65496 17.93038 138 ft 13 kts 254°
2026-05-05 14:48 59.65469 17.92874 138 ft 12 kts 251°
2026-05-05 14:49 59.65431 17.92714 138 ft 14 kts 239°
2026-05-05 14:49 59.65368 17.92559 138 ft 15 kts 224°
2026-05-05 14:49 59.65281 17.92441 138 ft 16 kts 205°
2026-05-05 14:49 59.65183 17.92384 138 ft 15 kts 192°
2026-05-05 14:50 59.65085 17.92342 138 ft 14 kts 193°
2026-05-05 14:50 59.64980 17.92304 138 ft 16 kts 189°
2026-05-05 14:50 59.64869 17.92264 137 ft 17 kts 194°
2026-05-05 14:50 59.64745 17.92217 137 ft 19 kts 190°
2026-05-05 14:51 59.64630 17.92180 137 ft 16 kts 191°
2026-05-05 14:51 59.64514 17.92136 137 ft 18 kts 189°
2026-05-05 14:51 59.64401 17.92095 138 ft 13 kts 190°
2026-05-05 14:51 59.64342 17.92034 138 ft 10 kts 243°
2026-05-05 14:52 59.64307 17.91909 138 ft 11 kts 210°
2026-05-05 14:52 59.64223 17.91865 138 ft 14 kts 192°
2026-05-05 14:52 59.64124 17.91829 138 ft 16 kts 191°
2026-05-05 14:52 59.64010 17.91783 138 ft 18 kts 192°
2026-05-05 14:53 59.63904 17.91747 138 ft 15 kts 191°
2026-05-05 14:53 59.63808 17.91648 138 ft 16 kts 219°
2026-05-05 14:53 59.63737 17.91511 140 ft 12 kts 244°
2026-05-05 14:53 59.63739 17.91381 147 ft 7 kts 283°
2026-05-05 14:54 59.63776 17.91342 146 ft 7 kts
2026-05-05 14:54 59.63781 17.91344 146 ft 0 kts
2026-05-05 14:54 59.63792 17.91347 146 ft 9 kts
2026-05-05 14:54 59.64096 17.91454 142 ft 78 kts 10°
2026-05-05 14:55 59.64818 17.91711 146 ft 130 kts 10°
2026-05-05 14:55 59.65839 17.92058 269 ft 158 kts
2026-05-05 14:55 59.66933 17.92487 799 ft 162 kts
2026-05-05 14:55 59.68065 17.92800 1244 ft 173 kts 349°
2026-05-05 14:56 59.69184 17.91695 1413 ft 189 kts 312°
2026-05-05 14:56 59.69763 17.89433 2111 ft 180 kts 278°
2026-05-05 14:56 59.69578 17.87114 2943 ft 171 kts 244°
2026-05-05 14:56 59.68721 17.85349 3418 ft 199 kts 213°
2026-05-05 14:57 59.67316 17.84638 4161 ft 214 kts 179°